Location: *
(42.5628°N, 2.3633°E)
Time: 21:23:04
(UTC+00:00)

STARLINK-1103 - Pass Details

Date: 30 March 2020
Orbit: 548 x 551 km, 53.0° (Epoch: 31 May)

Event Time Altitude Azimuth Distance (km) Brightness Sun altitude
Rises 20:12:25 0° 308° (NW) 2,730 8.6 -21.4°
Reaches altitude 10° 20:14:42 10° 313° (NW) 1,833 7.3 -21.8°
Maximum altitude 20:18:47 54° 31° (NNE) 673 3.9 -22.5°
Enters shadow 20:18:52 54° 36° (NE) 674 3.9 -22.5°
